Location: ?????????
(38.5999°N, 22.7695°E)
Time: 09:51:36
(UTC+00:00)

Resurs 1-4 Rocket - Pass Details

Date: 23 May 2024
Orbit: 798 x 813 km, 98.7° (Epoch: 18 June)

Event Time Altitude Azimuth Distance (km) Brightness Sun altitude
Rises 02:08:20 0° 350° (N) 3,312 5.7 -11.1°
Reaches altitude 10° 02:12:48 10° 314° (NW) 2,376 4.5 -10.4°
Maximum altitude 02:13:55 11° 301° (WNW) 2,327 4.3 -10.2°
Drops below altitude 10° 02:15:03 10° 289° (WNW) 2,374 4.2 -10.1°
Enters shadow 02:17:06 - 269° (W) 2,681 4.3 -9.7°
